YAOGAN 22

Satellite information

Favourite Embed

Satellite Type and Status

PAYLOADIN ORBIT

Key statistics

Satellite YAOGAN 22 at a glance.

Uptime

3976

Days in orbit

Revolutions

≈ 13.2

Per day

Orbit

SSO

Sun Synchronous Orbit

Inclination

100.7

Latest

Satellite identification and parameters

Extended collection of information and parameters for YAOGAN 22.

Object identification

Identified? True

Debris? False

Object name: YAOGAN 22

International designator: 2014-063A

Object number (NORAD): 40275

Object ID (CCSDS): 40275

Country: PEOPLES REPUBLIC OF CHINA (PRC)

Current information (Y/N): Y

RCS size: LARGE

Orbital parameters

Period: 109.463 minutes

Inclination: 100.7306 deg

SMA: 7580.034 km

Apoapsis: 1207.093 km

Periapsis: 1196.705 km

RAAN: 31.9999 deg

Eccentricy: 0.00068523

Argument of periapsis: 107.3006 deg

Mean anomaly: 252.8856 deg

Mean motion: 13.15515586 rev/day

Mean motion (dot): -0.00000005 rev/day2

B* drag term: 0.00011069558 1/REarth

Two-line elements (TLE)

Creation date: Sept. 7, 2025, 3:09 a.m.

Reference frame: TEME

Reference center: EARTH

Epoch: Sept. 6, 2025, 9:27 p.m. UTC

TLE line 0: 0 YAOGAN 22

TLE line 1: 1 40275U 14063A 25249.89417055 -.00000005 00000-0 11070-3 0 9991

TLE line 2: 2 40275 100.7306 31.9999 0006852 107.3006 252.8856 13.15515586522561

Live tracking on map

Real-time ground track for satellite YAOGAN 22.

In-orbit conjunctions

There are no conjunctions computed for YAOGAN 22, at the moment. Check back to stay up to date, as we update our databases every day.

Go to all conjunctions

Associated space launch

YAOGAN 22 was lifted into orbit during the mission ‘Long March 4C | Yaogan-22’, on board a Long March 4C space rocket.

The launch took place on Oct. 20, 2014, 6:31 a.m. from Launch Complex 9.

For more information about the launch, click the button.

Launch to space Long March 4C | Yaogan-22
Long March 4C | Yaogan-22

Agency: N/A

Status: Launch Successful

Launch date: Oct. 20, 2014, 6:31 a.m. UTC

Rocket: Long March 4C

Launch pad: Launch Complex 9

Location: Taiyuan Satellite Launch Center, People's Republic of China

...

Latest news about this satellite

There are no fresh news available about this satellite. Check back as we update our databases every day.


Newsletter sign-up

Weekly statistics, charts and insights to help you stay on top of the space industry.